Location: Unspecified
(45.3712°N, 0.6436°E)
Time: 13:50:16
(UTC+02:00)

ISS - Pass Details

Date: 18 July 2018
Orbit: 402 x 408 km, 51.6° (Epoch: 21 July)

Event Time Altitude Azimuth Distance (km) Brightness Sun altitude
Rises 03:56:35 0° 295° (WNW) 2,331 0.0 -18.8°
Reaches altitude 10° 03:58:51 10° 307° (NW) 1,471 -0.9 -18.6°
Maximum altitude 04:01:48 29° 10° (N) 774 -1.7 -18.3°
Drops below altitude 10° 04:04:44 10° 73° (ENE) 1,471 -0.4 -18.1°
Sets 04:07:00 0° 85° (E) 2,331 0.5 -17.9°
